Retour au catalogue

STARLINK-34809

ActifCommunicationsSSO
NORAD 65069·PAYLOAD·🇺🇸 United States

Lancé Jul 31, 2025 depuis Vandenberg Space Force Base

Loading…

Prochains Passages (prochaines 24 heures)

TLE

FraisSource: CelesTrak SupGP

Époque: Sep 14, 2026, 14:32 UTC

1 65069C 25165P   26257.60604167  .01993900  00000+0  84437-1 0  2571
2 65069  97.2841 328.8726 0001410  90.1232 124.3061 15.22236754    13

Suivez STARLINK-34809 en temps réel avec AllMySat

Download on the App Store